Date String (YYYY-MM-DD hh:mm:ss) UTC,Instrument flags,absolute air pressure of the measurement (hPa),sample flow rate (lpm),inlet stack bypass flow (lpm),air temperature of the measurement (°C),ambient temperature measured by the external sensor (°C),aerosol sample conditioner tube jacket temperature (°C),OPC LED temperature (°C),internal box temperature (°C),relative humidity of the measurement (%),span deviation,mass concentration of particles derived from Lorenz-Mie calculation of OPC scattering (μg/m³),mass concentration of particles derived from Lorenz-Mie calculation of OPC scattering (μg/m³),mass concentration of particles derived from Lorenz-Mie calculation of OPC scattering (μg/m³)
DateTimeUTC,F1_M11,P_M11,Q1_M11,Q2_M11,T1_M11,T2_M11,T3_M11,T4_M11,T5_M11,U1_M11,ZSPAN_M11,X0_M11,X2_M11,X1_M11
2024-06-06 03:00:00,SystemResetWarning,0828.4,5.00,000.00,029.2,028.4,000.0,037.4,031.1,016.4,0000.0,0007.02,0001.57,0000.93
2024-06-06 03:01:00,SystemResetWarning,0828.6,4.99,000.00,029.3,028.6,000.0,037.4,031.1,016.2,0000.0,0007.34,0001.61,0000.95
2024-06-06 03:02:00,SystemResetWarning,0828.6,4.99,000.00,029.4,028.8,000.0,037.5,031.2,016.2,0000.0,0007.51,0001.65,0000.94
2024-06-06 03:03:00,SystemResetWarning,0828.5,5.00,000.00,029.4,029.0,000.0,037.5,031.3,016.1,0000.0,0006.95,0001.67,0000.94
2024-06-06 03:04:00,SystemResetWarning,0828.5,5.00,000.00,029.5,029.1,000.0,037.5,031.4,016.0,0000.0,0007.25,0001.64,0000.92
2024-06-06 03:05:00,SystemResetWarning,0828.5,5.01,000.00,029.6,029.2,000.0,037.6,031.5,016.0,0000.0,0007.73,0001.64,0000.91
2024-06-06 03:06:00,SystemResetWarning,0828.6,5.00,000.00,029.5,027.6,000.0,037.7,030.6,016.2,0000.0,0008.29,0001.69,0000.92
2024-06-06 03:07:00,SystemResetWarning,0828.6,5.01,000.00,029.1,026.4,000.0,037.7,030.0,016.4,0000.0,0008.54,0001.76,0000.93
2024-06-06 03:08:00,SystemResetWarning,0828.6,5.01,000.00,029.0,026.7,000.0,037.6,030.1,016.5,0000.0,0009.35,0001.76,0000.94
2024-06-06 03:09:00,SystemResetWarning,0828.7,4.99,000.00,029.0,027.1,000.0,037.6,030.4,016.4,0000.0,0009.18,0001.80,0000.95
2024-06-06 03:10:00,SystemResetWarning,0828.8,5.00,000.00,029.1,027.5,000.0,037.5,030.6,016.5,0000.0,0009.15,0001.79,0000.94
2024-06-06 03:11:00,SystemResetWarning,0828.7,5.00,000.00,029.1,027.8,000.0,037.5,030.8,016.5,0000.0,0008.76,0001.73,0000.94
2024-06-06 03:12:00,SystemResetWarning,0828.7,5.01,000.00,029.2,028.1,000.0,037.5,030.9,016.5,0000.0,0008.91,0001.70,0000.92
2024-06-06 03:13:00,SystemResetWarning,0828.7,5.00,000.00,029.3,028.4,000.0,037.5,031.1,016.3,0000.0,0008.60,0001.63,0000.92
2024-06-06 03:14:00,SystemResetWarning,0828.7,5.00,000.00,029.3,028.6,000.0,037.5,031.2,016.2,0000.0,0009.42,0001.64,0000.92
2024-06-06 03:15:00,SystemResetWarning,0828.7,5.00,000.00,029.4,028.8,000.0,037.5,031.3,016.2,0000.0,0009.27,0001.65,0000.93
2024-06-06 03:16:00,SystemResetWarning,0828.7,5.00,000.00,029.5,028.9,000.0,037.6,031.3,016.2,0000.0,0008.78,0001.64,0000.92
2024-06-06 03:17:00,SystemResetWarning,0828.7,5.00,000.00,029.6,029.1,000.0,037.6,031.4,016.1,0000.0,0008.59,0001.65,0000.93
2024-06-06 03:18:00,SystemResetWarning,0828.7,5.00,000.00,029.6,029.2,000.0,037.6,031.5,016.1,0000.0,0008.56,0001.58,0000.92
2024-06-06 03:19:00,SystemResetWarning,0828.7,4.99,000.00,029.7,029.2,000.0,037.7,031.5,016.0,0000.0,0008.12,0001.61,0000.94
2024-06-06 03:20:00,SystemResetWarning,0828.7,4.98,000.00,029.5,027.1,000.0,037.8,030.5,016.1,0000.0,0007.73,0001.59,0000.94
2024-06-06 03:21:00,SystemResetWarning,0828.7,5.03,000.00,029.0,025.1,000.0,037.8,029.5,016.5,0000.0,0008.88,0001.56,0000.95
2024-06-06 03:22:00,SystemResetWarning,0828.7,4.99,000.00,028.8,025.5,000.0,037.7,029.6,016.8,0000.0,0009.42,0001.59,0000.95
2024-06-06 03:23:00,SystemResetWarning,0828.7,5.00,000.00,028.8,026.1,000.0,037.5,029.9,016.9,0000.0,0010.02,0001.58,0000.96
2024-06-06 03:24:00,SystemResetWarning,0828.8,5.00,000.00,028.8,026.6,000.0,037.5,030.1,016.9,0000.0,0010.15,0001.59,0000.97
2024-06-06 03:25:00,SystemResetWarning,0828.8,5.00,000.00,028.8,027.0,000.0,037.4,030.4,016.9,0000.0,0009.35,0001.60,0000.98
2024-06-06 03:26:00,SystemResetWarning,0828.8,5.00,000.00,028.9,027.4,000.0,037.4,030.5,016.9,0000.0,0009.16,0001.58,0000.98
2024-06-06 03:27:00,SystemResetWarning,0828.8,5.00,000.00,028.9,027.8,000.0,037.3,030.7,016.9,0000.0,0009.18,0001.58,0000.98
2024-06-06 03:28:00,SystemResetWarning,0828.7,5.00,000.00,029.0,028.1,000.0,037.3,030.8,016.8,0000.0,0008.52,0001.58,0000.98
2024-06-06 03:29:00,SystemResetWarning,0828.8,5.00,000.00,029.1,028.3,000.0,037.4,030.9,016.6,0000.0,0008.85,0001.62,0000.98
2024-06-06 03:30:00,SystemResetWarning,0828.9,5.00,000.00,029.2,028.5,000.0,037.4,031.0,016.6,0000.0,0009.07,0001.56,0000.96
2024-06-06 03:31:00,SystemResetWarning,0828.9,5.00,000.00,029.2,028.7,000.0,037.4,031.1,016.5,0000.0,0008.92,0001.53,0000.95
2024-06-06 03:32:00,SystemResetWarning,0828.9,5.00,000.00,029.3,028.8,000.0,037.4,031.2,016.4,0000.0,0007.86,0001.52,0000.95
2024-06-06 03:33:00,SystemResetWarning,0829.0,5.00,000.00,029.4,029.0,000.0,037.5,031.3,016.4,0000.0,0007.04,0001.51,0000.93
2024-06-06 03:34:00,SystemResetWarning,0829.0,4.99,000.00,029.5,029.1,000.0,037.5,031.3,016.3,0000.0,0006.04,0001.50,0000.93
2024-06-06 03:35:00,SystemResetWarning,0829.0,5.00,000.00,029.5,029.2,000.0,037.5,031.4,016.2,0000.0,0004.99,0001.49,0000.93
2024-06-06 03:36:00,SystemResetWarning,0829.0,5.00,000.00,029.6,029.3,000.0,037.6,031.5,016.2,0000.0,0004.97,0001.49,0000.92
2024-06-06 03:37:00,SystemResetWarning,0829.1,5.00,000.00,029.7,029.3,000.0,037.6,031.5,016.2,0000.0,0004.58,0001.47,0000.91
2024-06-06 03:38:00,SystemResetWarning,0828.9,4.98,000.00,029.5,027.7,000.0,037.7,030.7,016.2,0000.0,0004.24,0001.46,0000.91
2024-06-06 03:39:00,SystemResetWarning,0828.9,5.03,000.00,029.2,026.4,000.0,037.8,030.1,016.5,0000.0,0004.28,0001.48,0000.91
2024-06-06 03:40:00,SystemResetWarning,0829.0,4.99,000.00,029.1,026.8,000.0,037.7,030.2,016.6,0000.0,0004.24,0001.53,0000.93
2024-06-06 03:41:00,SystemResetWarning,0829.1,5.00,000.00,029.1,027.1,000.0,037.6,030.4,016.6,0000.0,0003.84,0001.56,0000.94
2024-06-06 03:42:00,SystemResetWarning,0829.1,5.00,000.00,029.1,027.5,000.0,037.6,030.7,016.6,0000.0,0004.52,0001.57,0000.95
2024-06-06 03:43:00,SystemResetWarning,0829.1,5.00,000.00,029.2,027.9,000.0,037.6,030.8,016.7,0000.0,0004.69,0001.60,0000.95
2024-06-06 03:44:00,SystemResetWarning,0829.1,5.00,000.00,029.3,028.1,000.0,037.5,031.0,016.6,0000.0,0005.91,0001.60,0000.97
2024-06-06 03:45:00,SystemResetWarning,0829.1,5.01,000.00,029.3,028.4,000.0,037.5,031.1,016.6,0000.0,0005.96,0001.60,0000.96
2024-06-06 03:46:00,SystemResetWarning,0829.0,5.01,000.00,029.4,028.6,000.0,037.6,031.2,016.4,0000.0,0005.87,0001.59,0000.97
2024-06-06 03:47:00,SystemResetWarning,0829.1,4.99,000.00,029.4,028.8,000.0,037.6,031.3,016.3,0000.0,0005.83,0001.58,0000.97
2024-06-06 03:48:00,SystemResetWarning,0829.2,5.01,000.00,029.5,028.9,000.0,037.6,031.3,016.2,0000.0,0005.89,0001.60,0000.98
2024-06-06 03:49:00,SystemResetWarning,0829.3,5.00,000.00,029.6,029.1,000.0,037.6,031.4,016.1,0000.0,0005.97,0001.61,0000.97
2024-06-06 03:50:00,SystemResetWarning,0829.4,5.00,000.00,029.7,029.2,000.0,037.7,031.5,016.2,0000.0,0006.08,0001.61,0000.96
2024-06-06 03:51:00,SystemResetWarning,0829.4,4.99,000.00,029.7,029.3,000.0,037.7,031.6,016.1,0000.0,0005.74,0001.58,0000.95
2024-06-06 03:52:00,SystemResetWarning,0829.3,4.98,000.00,029.7,028.6,000.0,037.8,031.2,016.1,0000.0,0005.25,0001.55,0000.95
2024-06-06 03:53:00,SystemResetWarning,0829.1,5.01,000.00,029.4,026.6,000.0,037.8,030.2,016.4,0000.0,0004.69,0001.57,0000.95
2024-06-06 03:54:00,SystemResetWarning,0829.2,5.01,000.00,029.2,026.6,000.0,037.8,030.1,016.6,0000.0,0004.60,0001.57,0000.94
2024-06-06 03:55:00,SystemResetWarning,0829.1,4.99,000.00,029.1,027.0,000.0,037.7,030.4,016.6,0000.0,0003.67,0001.58,0000.93
2024-06-06 03:56:00,SystemResetWarning,0829.2,5.00,000.00,029.2,027.4,000.0,037.7,030.6,016.6,0000.0,0003.56,0001.56,0000.93
2024-06-06 03:57:00,SystemResetWarning,0829.3,5.00,000.00,029.2,027.7,000.0,037.6,030.8,016.5,0000.0,0003.63,0001.59,0000.93
2024-06-06 03:58:00,SystemResetWarning,0829.3,5.01,000.00,029.3,028.0,000.0,037.6,030.9,016.6,0000.0,0003.68,0001.60,0000.92
2024-06-06 03:59:00,SystemResetWarning,0829.3,4.99,000.00,029.3,028.3,000.0,037.6,031.1,016.5,0000.0,0003.64,0001.60,0000.92
